Wind_Speed
24 23 24 23 23 24 23 23 23 23 22 22 21 20 20 19 19 19 19 19 19 18 18 18 18 18 19 20 20 19 19 19 19 19 20 20 20 20 20 20 20 20 19
26 25 24 25 25 25 25 25 25 25 24 24 23 22 21 21 21 20 20 20 20 20 20 20 19 20 20 20 21 21 21 21 21 21 22 22 21 21 21 22 21 21 21
27 26 26 26 26 25 25 26 26 26 26 26 25 24 23 23 23 22 21 21 21 21 22 21 21 21 22 22 23 23 23 23 23 23 23 23 22 22 23 23 23 23 23
26 27 27 27 27 27 26 26 26 25 25 26 26 25 25 24 24 23 23 22 23 23 23 23 22 23 23 24 24 25 25 24 24 24 24 24 23 24 24 24 24 24 25
27 28 28 28 28 27 27 26 26 26 25 25 26 26 26 25 24 24 24 24 23 24 24 24 24 24 24 25 25 26 26 26 26 25 25 25 25 25 25 25 25 25 25
26 27 27 28 28 27 27 26 27 27 27 27 26 27 26 26 26 26 26 26 25 25 25 25 25 25 26 26 25 25 26 26 26 26 25 26 26 26 26 26 26 26 26
26 27 27 27 27 27 27 28 27 26 26 26 27 26 26 26 28 27 27 27 27 26 26 26 26 26 26 26 26 25 26 26 26 26 25 25 26 26 26 26 26 26 26
26 26 26 27 27 27 27 27 26 26 25 25 26 26 26 26 27 27 27 27 27 27 27 26 26 26 26 26 26 26 25 26 26 26 26 26 27 27 26 26 26 27 27
25 25 25 26 26 26 27 26 26 25 25 25 26 26 26 26 27 28 28 28 27 27 27 26 27 27 26 26 26 26 26 26 26 26 27 27 27 27 27 27 27 28 28
25 26 25 25 25 25 25 25 25 25 25 25 25 26 26 27 27 28 28 28 27 27 27 27 27 27 27 27 26 26 26 26 26 26 26 27 27 27 28 28 28 28 28
26 25 25 24 25 25 25 24 25 25 25 25 25 25 26 26 27 28 28 28 28 27 27 27 27 27 27 27 27 27 27 27 27 26 26 27 27 28 29 28 28 28 28
26 26 25 24 24 24 24 24 24 25 25 25 25 25 25 25 26 27 28 28 28 28 28 28 27 26 26 26 27 27 27 27 27 27 27 27 27 28 29 28 28 29 28
25 26 26 26 25 25 24 24 25 25 25 25 25 24 24 24 25 26 27 28 28 29 29 29 28 28 27 27 27 27 27 27 28 29 28 28 29 29 29 29 29 29 28
25 25 26 26 25 25 26 26 26 25 26 25 24 23 23 24 25 26 27 28 28 28 28 29 29 29 29 29 29 28 28 28 29 29 29 30 30 30 29 29 28 29 29
26 25 25 26 26 26 26 25 25 26 25 25 25 25 25 25 25 26 27 27 28 28 28 29 29 30 29 30 29 29 29 29 29 30 29 30 30 30 29 28 28 29 29
25 25 26 26 26 26 26 25 25 25 25 25 25 25 25 25 26 26 26 27 27 27 27 27 28 28 29 30 30 30 30 30 30 30 30 30 29 29 29 29 29 29 30
25 24 25 25 25 25 25 25 24 24 24 24 25 25 25 25 25 26 26 26 26 26 27 27 27 27 28 29 29 30 31 31 31 30 29 29 29 29 28 28 29 28 28
25 24 24 24 25 25 24 24 24 24 24 24 24 25 25 25 25 25 26 26 26 26 27 28 28 28 28 29 30 30 30 29 29 28 28 27 27 28 28 28 28 28 28
24 24 23 23 23 22 22 23 23 23 23 23 24 24 24 24 24 25 25 26 26 26 27 28 28 28 29 29 30 31 30 29 29 30 29 28 28 28 28 28 28 27 27
23 22 21 20 21 22 22 21 21 22 22 22 22 22 23 23 24 24 25 25 26 27 27 27 28 28 28 28 29 29 30 30 30 30 29 29 28 28 28 28 28 28 28
20 19 18 18 19 20 20 20 19 19 20 20 20 21 22 22 23 24 24 26 27 27 27 26 26 27 27 28 28 29 29 29 29 29 29 28 28 27 26 27 27 27 27
19 19 18 18 18 18 18 18 18 19 19 19 20 21 22 22 22 23 24 25 26 26 26 26 26 27 27 28 28 28 28 28 28 27 27 26 26 27 27 27 27 28 28
19 19 19 18 17 17 17 17 17 18 18 19 20 20 21 21 22 22 23 24 24 24 24 25 26 26 27 27 26 26 26 26 26 26 26 26 26 26 26 26 26 27 27
18 18 18 18 17 17 18 18 18 19 19 19 20 20 20 20 20 21 22 22 23 23 23 23 24 24 24 24 24 25 25 25 25 25 25 25 26 26 26 26 26 26 26
18 18 18 19 19 19 19 19 19 19 20 20 20 20 20 20 20 21 21 22 22 23 23 23 23 23 23 22 22 23 23 24 24 23 24 24 24 25 25 26 26 25 25
19 19 19 20 20 20 20 20 20 19 19 20 20 20 20 20 21 21 22 22 22 23 23 23 22 22 22 22 22 22 22 22 23 23 23 23 24 24 24 24 24 24 24
Wind_Direction
267 269 270 270 269 269 268 270 271 272 271 270 269 268 270 273 274 272 271 270 271 272 272 272 275 274 273 275 272 272 274 275 274 273 273 273 274 275 275 277 278 278 279
266 269 269 271 271 270 270 270 270 269 268 268 269 268 267 270 272 272 271 270 270 270 270 271 273 274 275 275 273 272 274 274 273 273 273 273 274 275 276 277 278 278 279
268 268 270 272 271 273 273 272 270 269 267 268 269 268 267 269 269 268 269 269 268 268 271 272 271 272 274 275 273 273 273 273 273 273 273 273 274 275 275 277 278 278 279
270 272 272 272 272 273 273 273 272 270 269 267 266 266 266 267 268 266 267 268 267 269 271 271 270 271 273 276 276 274 273 273 272 272 273 272 273 275 277 277 277 278 279
271 273 273 273 274 273 273 271 270 270 270 268 266 265 265 264 266 266 267 268 269 268 270 271 271 272 275 277 276 275 273 272 272 271 271 270 272 274 277 277 277 278 279
269 270 270 272 274 273 272 272 271 271 270 269 267 267 264 263 265 266 268 270 269 269 270 271 271 273 276 277 278 276 273 273 274 272 271 271 272 274 275 277 278 277 278
269 268 269 271 272 274 273 272 270 270 270 270 268 267 265 265 265 265 266 268 269 270 270 271 272 274 276 278 278 277 275 273 272 273 272 271 272 273 274 275 277 278 278
269 270 272 272 272 272 271 269 267 268 269 269 269 269 268 267 266 266 265 266 269 270 270 271 271 273 274 276 277 277 275 273 272 271 272 272 273 274 275 274 275 277 279
268 269 272 273 272 272 271 268 267 268 269 269 268 269 267 265 265 264 264 265 267 269 269 270 271 271 273 274 275 275 274 272 271 273 273 272 272 272 273 275 276 277 279
266 268 270 272 271 271 269 267 269 270 269 269 269 271 267 264 263 263 263 264 266 268 269 270 271 271 271 272 272 272 271 270 271 273 274 273 272 274 275 276 276 277 278
266 267 269 271 270 269 267 267 269 270 269 270 270 270 268 264 263 262 264 265 266 266 267 268 269 270 271 272 271 270 268 268 270 273 274 274 274 275 276 276 277 278 279
265 266 268 268 267 266 266 268 269 269 268 270 271 269 267 266 264 264 264 265 266 266 267 267 268 269 269 269 270 269 268 268 269 271 273 275 275 276 277 277 277 280 280
264 264 265 265 264 265 266 268 269 269 268 269 270 268 267 267 267 266 266 266 267 267 266 266 267 267 268 268 268 268 268 268 269 270 273 274 274 275 276 278 278 279 279
262 261 262 264 262 263 265 267 268 268 269 269 267 266 267 268 268 269 269 268 267 267 266 266 265 266 268 267 267 267 267 268 270 270 272 272 272 273 274 277 278 278 279
262 260 259 261 264 265 266 266 265 265 267 269 269 268 268 268 270 269 269 270 268 267 266 266 265 266 267 267 266 266 267 269 270 270 270 271 272 274 274 276 277 278 279
262 261 260 263 265 265 264 265 266 267 268 270 271 269 268 268 269 270 270 271 271 268 267 269 269 269 269 268 267 266 266 268 271 271 271 271 273 274 275 275 277 278 279
260 261 262 265 265 265 265 266 268 269 269 270 271 270 269 269 270 271 270 270 271 270 270 271 273 272 270 269 269 268 266 267 268 269 270 271 272 272 273 274 276 278 280
259 261 263 264 267 267 267 268 269 269 272 271 272 273 272 271 271 272 271 271 271 273 273 272 273 274 272 270 269 269 268 268 267 268 269 270 270 270 271 274 275 276 279
258 260 262 262 263 267 268 269 270 271 272 273 273 273 271 271 271 274 274 273 272 273 275 275 275 275 275 272 270 270 269 269 269 268 269 269 269 269 271 273 274 275 277
256 257 259 261 264 267 268 268 270 273 273 273 274 273 272 273 273 275 275 275 275 276 278 277 276 276 276 275 273 271 270 270 270 269 269 269 269 271 271 271 272 274 277
254 254 257 261 265 267 267 268 271 273 274 272 272 274 274 275 277 277 276 276 277 278 279 279 277 278 278 278 275 272 271 272 271 269 269 268 268 269 271 272 273 275 277
256 257 258 261 265 266 267 268 270 273 274 276 277 277 277 277 278 278 276 276 277 277 278 279 280 280 279 279 277 274 273 272 271 268 268 267 268 269 272 274 276 277 278
257 257 261 264 267 268 268 268 270 274 276 279 281 281 281 281 281 280 279 279 280 280 279 280 280 281 280 279 278 276 274 273 271 269 269 267 268 270 272 273 275 277 279
257 256 258 260 263 264 266 268 272 276 278 280 281 282 283 284 284 284 283 283 283 284 284 283 283 283 282 281 279 277 274 273 272 269 267 268 269 269 270 271 273 276 278
254 256 260 262 264 265 268 270 274 276 278 280 283 285 286 286 288 287 286 285 284 285 286 285 284 283 284 284 283 280 277 276 275 272 269 270 271 271 271 272 274 275 276
255 256 259 263 265 268 270 271 273 276 278 280 284 287 287 288 291 290 288 289 288 287 287 286 285 284 284 284 282 282 280 278 277 275 273 272 273 274 274 274 274 275 275
Height
5839 5839 5839 5839 5839 5839 5838 5838 5838 5837 5837 5837 5837 5837 5837 5836 5836 5836 5835 5835 5834 5834 5834 5833 5833 5832 5832 5831 5831 5830 5830 5829 5829 5828 5827 5827 5826 5825 5824 5823 5822 5821 5821
5832 5832 5832 5832 5831 5832 5832 5832 5831 5831 5831 5831 5831 5831 5831 5831 5830 5830 5829 5829 5829 5829 5828 5828 5827 5827 5827 5826 5826 5825 5824 5824 5823 5823 5822 5822 5821 5820 5819 5818 5818 5817 5816
5824 5824 5824 5824 5824 5824 5824 5824 5824 5824 5824 5824 5824 5824 5824 5824 5824 5823 5823 5823 5823 5823 5822 5822 5821 5821 5820 5820 5819 5819 5818 5818 5817 5817 5816 5816 5815 5815 5814 5813 5812 5811 5810
5817 5817 5817 5817 5817 5817 5817 5817 5817 5817 5817 5817 5817 5817 5817 5817 5817 5817 5816 5816 5817 5817 5816 5815 5815 5814 5814 5813 5812 5812 5811 5811 5811 5810 5810 5810 5809 5809 5808 5807 5806 5805 5804
5810 5809 5810 5810 5810 5810 5810 5810 5810 5810 5809 5809 5810 5810 5809 5810 5810 5810 5809 5809 5809 5810 5809 5809 5808 5808 5807 5806 5805 5805 5804 5804 5804 5804 5803 5803 5803 5802 5801 5800 5800 5799 5798
5803 5802 5802 5802 5802 5802 5802 5802 5802 5802 5801 5801 5802 5802 5802 5802 5802 5803 5802 5802 5802 5802 5802 5801 5801 5801 5800 5799 5798 5798 5797 5797 5797 5796 5796 5796 5795 5795 5794 5793 5792 5792 5791
5795 5795 5795 5795 5794 5794 5794 5794 5794 5794 5794 5794 5794 5794 5793 5793 5794 5794 5794 5795 5795 5794 5794 5794 5793 5793 5792 5791 5791 5790 5790 5789 5789 5788 5788 5788 5788 5787 5787 5786 5785 5784 5783
5787 5787 5787 5787 5786 5786 5786 5786 5786 5786 5786 5786 5785 5785 5785 5785 5785 5786 5786 5786 5786 5786 5786 5786 5786 5785 5784 5784 5783 5782 5782 5781 5781 5781 5781 5781 5780 5780 5779 5779 5778 5777 5776
5779 5779 5779 5779 5779 5779 5778 5778 5778 5778 5777 5777 5776 5776 5776 5776 5777 5777 5778 5778 5778 5779 5778 5778 5777 5777 5777 5776 5775 5775 5774 5774 5773 5773 5773 5773 5772 5772 5771 5771 5770 5770 5769
5772 5772 5772 5771 5771 5771 5770 5770 5770 5770 5769 5769 5768 5768 5768 5768 5769 5769 5769 5770 5770 5770 5770 5770 5769 5769 5768 5767 5767 5767 5766 5766 5766 5766 5765 5765 5765 5764 5764 5763 5762 5762 5761
5764 5764 5764 5764 5763 5763 5763 5762 5762 5762 5762 5761 5761 5760 5760 5760 5761 5761 5761 5761 5762 5762 5762 5761 5761 5760 5760 5759 5759 5759 5758 5758 5758 5758 5757 5757 5757 5756 5756 5755 5754 5754 5753
5756 5756 5756 5756 5756 5755 5755 5755 5755 5754 5754 5754 5753 5752 5752 5752 5753 5753 5753 5753 5753 5753 5753 5753 5753 5752 5752 5751 5751 5751 5750 5750 5750 5750 5749 5749 5748 5748 5747 5747 5746 5745 5744
5747 5748 5748 5748 5748 5748 5748 5748 5747 5747 5747 5746 5746 5745 5745 5745 5745 5745 5745 5745 5745 5745 5745 5745 5744 5744 5743 5743 5743 5742 5742 5742 5742 5742 5741 5741 5741 5740 5739 5739 5738 5737 5736
5739 5739 5740 5740 5740 5741 5740 5740 5740 5740 5739 5738 5738 5737 5737 5737 5737 5737 5737 5737 5736 5736 5736 5736 5736 5735 5735 5734 5734 5734 5734 5734 5734 5734 5733 5733 5732 5732 5731 5730 5729 5729 5728
5731 5731 5732 5733 5733 5733 5732 5732 5733 5732 5732 5731 5730 5730 5730 5730 5730 5729 5729 5729 5728 5728 5727 5727 5727 5727 5726 5726 5725 5725 5725 5725 5725 5725 5725 5724 5724 5723 5723 5722 5721 5720 5719
5723 5723 5724 5725 5725 5725 5725 5724 5724 5724 5724 5723 5723 5722 5722 5722 5721 5721 5721 5721 5720 5720 5719 5719 5718 5718 5717 5717 5717 5716 5716 5716 5716 5716 5716 5716 5715 5715 5714 5714 5713 5712 5711
5715 5716 5716 5717 5716 5716 5716 5716 5716 5716 5716 5715 5715 5714 5714 5713 5713 5713 5713 5713 5712 5712 5711 5711 5710 5709 5709 5708 5708 5707 5707 5707 5707 5707 5707 5707 5707 5706 5705 5705 5704 5703 5702
5707 5708 5708 5708 5708 5708 5708 5708 5708 5708 5708 5707 5707 5706 5706 5705 5705 5705 5705 5704 5704 5703 5703 5702 5701 5701 5700 5699 5699 5698 5698 5698 5698 5698 5698 5698 5697 5697 5697 5696 5695 5695 5694
5700 5700 5700 5701 5701 5701 5701 5700 5700 5700 5700 5699 5699 5698 5698 5698 5697 5697 5696 5696 5696 5695 5694 5694 5693 5692 5691 5690 5690 5689 5689 5689 5689 5689 5689 5689 5688 5688 5688 5687 5687 5686 5685
5692 5693 5693 5693 5693 5694 5693 5693 5693 5693 5692 5692 5691 5691 5690 5690 5689 5689 5688 5688 5687 5687 5686 5685 5684 5683 5682 5681 5681 5680 5680 5680 5680 5680 5680 5680 5679 5679 5679 5679 5678 5677 5676
5685 5685 5686 5687 5687 5687 5687 5686 5686 5686 5685 5685 5685 5684 5683 5683 5682 5681 5680 5680 5679 5678 5677 5676 5676 5675 5674 5673 5672 5671 5671 5671 5670 5670 5670 5670 5670 5670 5670 5670 5669 5668 5668
5679 5679 5679 5680 5680 5680 5680 5680 5680 5680 5679 5679 5678 5678 5677 5676 5675 5674 5673 5672 5671 5670 5669 5668 5667 5666 5665 5664 5663 5662 5662 5662 5661 5661 5661 5661 5661 5661 5661 5661 5660 5660 5659
5672 5673 5673 5674 5674 5674 5674 5674 5674 5674 5673 5673 5672 5671 5670 5669 5668 5666 5665 5664 5663 5662 5661 5660 5659 5658 5656 5655 5654 5653 5653 5653 5653 5653 5653 5653 5653 5653 5653 5652 5652 5651 5650
5666 5666 5667 5668 5668 5668 5668 5668 5668 5668 5667 5667 5666 5665 5664 5662 5661 5659 5658 5657 5655 5654 5653 5652 5650 5649 5648 5647 5646 5645 5645 5645 5645 5644 5644 5644 5644 5644 5644 5643 5643 5643 5642
5659 5660 5661 5662 5662 5662 5662 5662 5662 5662 5661 5660 5660 5658 5657 5656 5654 5653 5651 5650 5648 5647 5645 5644 5642 5641 5640 5639 5639 5638 5637 5637 5637 5636 5636 5636 5636 5636 5636 5635 5635 5634 5633
5653 5654 5655 5656 5656 5656 5656 5656 5656 5655 5655 5654 5653 5652 5650 5649 5647 5645 5644 5642 5641 5639 5638 5636 5635 5634 5633 5632 5632 5631 5630 5630 5629 5629 5629 5629 5628 5628 5627 5627 5626 5626 5625